Theta_e
319 314 313 310 299 295 290 293 297 299 298 301 304 303 304 306 306 301 327 332 336 335 344 346 348 350 350 348 346 345 343 341 341 341 341 342 342 342 344 345 345 343 339 338 337 336 337 337 339
316 316 311 304 294 289 289 294 296 299 300 303 305 303 303 305 317 323 324 334 338 338 343 345 346 349 349 348 346 345 343 341 340 340 339 340 341 342 345 344 345 341 339 337 336 335 336 336 337
316 315 303 299 292 288 290 293 298 300 301 300 301 304 305 309 320 326 332 336 338 337 342 344 345 349 348 347 346 344 343 340 338 337 338 338 340 341 345 343 342 338 336 336 335 334 336 335 335
309 306 301 294 291 293 294 297 301 299 300 301 302 302 310 316 325 331 336 339 337 338 342 343 346 348 348 348 345 343 341 338 337 336 335 337 338 339 342 340 339 336 335 334 333 333 335 334 338
307 302 295 292 291 293 296 300 301 299 299 298 300 301 307 319 331 334 335 337 336 338 341 344 345 347 347 347 346 344 342 339 336 334 334 335 336 337 339 338 336 334 333 332 331 332 332 332 335
300 298 292 289 292 295 295 299 300 299 298 300 298 302 307 320 329 331 334 334 339 339 342 344 340 342 344 345 345 344 342 339 337 334 333 333 335 335 336 334 333 331 330 330 330 331 331 331 332
298 295 290 292 292 294 297 299 297 298 299 299 302 299 308 316 324 332 332 336 342 342 343 343 342 340 338 340 341 341 341 338 337 335 334 335 335 335 334 332 330 329 329 329 329 330 330 331 331
300 297 292 292 292 293 297 298 299 299 297 302 303 299 303 313 324 332 332 331 340 341 341 341 340 340 340 339 335 336 338 338 337 334 331 330 330 331 331 329 328 327 328 328 328 329 328 330 329
300 292 289 292 293 294 297 297 299 300 300 299 303 305 308 316 323 326 326 326 334 338 339 339 338 338 338 338 334 332 333 333 331 328 325 322 322 322 321 324 326 326 327 327 328 326 325 324 325
295 290 292 295 293 294 298 297 298 296 297 297 300 305 314 318 318 319 321 321 328 330 334 336 337 337 338 339 335 335 334 332 329 325 322 321 319 320 320 320 323 326 326 326 325 324 322 317 313
296 293 296 295 298 298 297 295 299 296 293 297 300 303 314 315 316 317 320 320 324 329 333 334 336 337 338 339 336 336 335 330 328 324 322 322 319 318 316 315 314 315 317 317 318 314 313 311 311
292 297 296 299 300 298 296 298 295 297 298 301 301 304 312 314 315 316 319 320 322 328 331 333 336 336 338 339 337 337 335 332 327 323 324 321 316 315 314 313 311 311 310 309 310 310 309 308 308
293 294 296 299 298 297 299 295 295 296 299 299 302 305 311 314 314 315 319 320 321 325 329 331 334 336 337 337 338 337 335 333 329 325 327 322 318 314 313 313 312 310 309 310 308 308 307 305 305
296 297 296 297 297 297 295 294 295 297 299 298 301 302 304 311 313 313 315 319 319 323 326 330 332 334 336 335 336 336 336 335 332 328 329 324 320 316 314 313 314 314 315 313 310 308 303 301 301
298 293 294 295 297 295 296 291 294 297 298 298 298 298 300 304 309 312 316 316 321 323 326 329 330 333 334 335 335 335 336 336 334 331 329 325 322 319 318 316 316 316 314 312 309 305 301 298 296
292 291 286 293 296 297 293 286 294 296 296 296 296 295 298 300 302 308 312 316 316 318 323 328 332 333 333 334 334 334 335 335 334 333 330 327 324 322 319 317 316 316 314 310 306 300 296 295 295
289 283 286 291 296 296 293 288 296 297 295 295 295 296 297 298 299 301 304 311 316 318 322 325 331 331 332 331 332 332 332 333 334 333 330 327 326 324 320 317 316 315 312 306 302 297 296 293 293
285 285 287 286 293 293 291 291 295 297 295 295 295 296 297 298 299 303 302 304 311 315 320 325 328 330 330 329 328 326 326 329 332 333 332 329 328 324 320 317 315 315 309 304 300 296 295 294 292
288 287 285 288 294 292 290 290 293 295 293 292 293 294 295 297 301 301 303 303 304 312 317 322 324 324 327 324 325 325 324 323 326 331 332 330 329 325 322 318 315 315 309 304 299 295 294 292 291
289 287 286 289 293 290 289 290 292 293 295 297 295 293 294 294 297 300 300 301 303 310 316 320 323 323 326 327 326 325 321 317 322 323 328 330 329 326 323 319 315 314 310 301 297 296 293 292 291
289 287 286 287 289 289 287 285 289 293 294 295 295 296 296 297 297 297 298 299 301 304 312 317 321 322 325 324 319 315 315 314 313 313 319 316 325 326 323 319 315 314 310 302 298 296 294 291 290
287 291 290 288 285 281 287 278 285 290 293 292 295 295 296 296 297 298 299 298 299 303 308 315 319 321 322 319 318 317 318 317 315 318 311 312 316 318 322 319 316 313 309 305 300 298 297 295 290
289 292 289 288 285 282 283 280 284 287 287 291 293 293 293 296 296 296 298 298 300 300 303 308 311 313 315 318 317 316 316 314 305 305 306 306 308 313 313 317 315 312 310 306 301 298 297 296 293
294 291 290 287 284 278 283 283 279 285 288 289 292 292 295 297 297 296 297 299 300 300 301 303 307 308 309 314 311 313 312 304 303 302 302 301 305 308 307 309 312 312 310 307 303 300 299 297 296
290 285 277 277 276 277 282 280 283 289 291 292 292 292 295 295 296 298 298 297 298 300 300 301 302 303 305 306 307 307 306 305 304 302 302 303 302 301 305 305 308 308 308 307 304 301 299 298 296
287 285 278 272 275 277 281 279 285 291 293 293 294 292 295 295 296 297 297 297 296 298 299 300 301 301 302 304 305 306 306 305 304 303 302 302 303 304 304 303 304 305 306 306 303 301 300 298 297
287 284 288 281 273 275 280 284 289 291 292 294 293 293 293 295 296 297 297 298 297 297 298 299 300 300 301 302 304 304 305 304 304 304 303 303 301 299 297 301 301 301 302 303 302 301 299 298 297
288 290 282 281 271 270 277 279 283 288 291 293 293 293 295 295 297 297 296 296 297 297 298 299 299 300 300 301 303 304 303 303 303 303 301 300 300 298 295 295 299 300 300 300 301 299 298 297 297
286 285 286 285 281 275 273 279 287 289 293 293 293 294 294 295 295 296 296 296 296 297 297 298 299 299 300 300 301 302 302 302 302 301 301 299 297 296 294 293 293 295 296 297 299 299 297 296 296
289 288 287 281 279 281 280 283 293 294 294 295 295 296 294 295 295 295 295 295 295 296 296 297 298 298 299 300 300 300 300 300 299 299 299 297 295 292 292 289 288 289 292 293 295 293 294 294 292
Wind_Speed
7 8 1 5 6 6 1 2 4 5 5 2 3 8 7 2 2 3 5 9 15 14 11 10 13 12 13 13 13 11 11 13 14 14 14 13 14 14 17 18 18 19 20 19 18 18 18 17 16
4 5 6 2 5 4 4 3 5 3 5 6 6 3 4 2 3 6 9 9 15 13 11 11 13 13 13 14 13 11 12 13 14 13 14 14 13 15 16 18 18 20 19 18 17 17 17 17 17
4 2 4 4 3 4 3 5 8 3 4 3 3 3 3 3 2 9 7 14 17 14 12 11 13 14 13 14 13 12 12 13 14 14 13 14 13 14 16 18 18 18 18 16 16 16 16 16 14
3 6 5 4 2 3 6 8 8 4 5 4 4 6 4 3 10 7 14 15 15 13 12 13 15 16 15 15 15 14 13 13 13 14 13 14 13 14 16 18 18 17 16 16 16 15 15 16 17
5 4 2 2 1 3 6 8 7 5 6 3 3 4 3 3 8 10 10 13 14 10 12 13 15 16 16 15 15 14 14 14 13 14 14 14 14 14 15 17 17 17 16 15 15 15 15 15 16
4 3 4 2 2 5 3 6 8 7 5 4 3 7 4 4 8 8 8 10 13 13 12 11 13 12 14 15 15 14 14 14 14 13 14 15 14 14 15 15 16 16 16 16 15 15 15 18 18
4 4 3 2 3 2 4 5 6 7 7 5 5 4 3 3 6 8 8 10 15 13 12 9 9 10 12 13 12 13 13 14 14 13 13 13 13 13 15 15 16 16 16 16 16 16 17 18 22
5 5 4 2 3 3 4 3 0 5 3 1 3 5 5 6 8 8 7 9 14 13 13 12 9 8 8 9 12 12 12 12 13 12 12 12 12 13 12 11 14 16 16 16 16 16 15 19 20
3 5 1 4 3 4 4 4 4 3 6 2 2 5 3 11 9 6 5 5 7 10 13 11 11 9 8 8 9 12 13 13 13 12 12 9 5 7 8 9 14 16 16 16 16 15 16 16 17
5 5 5 3 2 2 4 5 6 3 4 2 3 3 7 10 8 9 7 7 7 8 11 13 12 11 9 8 8 7 8 7 7 7 7 5 6 6 7 8 11 14 14 15 16 14 12 9 5
4 6 3 2 2 3 2 2 7 6 3 6 10 10 10 7 9 9 8 8 9 8 9 12 13 13 13 10 8 5 5 5 5 8 6 5 5 6 5 4 4 4 6 4 5 5 4 7 5
2 4 2 3 3 2 2 5 2 6 8 5 7 14 10 10 11 11 11 10 9 10 11 11 14 11 11 8 9 10 7 6 6 7 6 6 4 5 7 5 5 4 3 5 4 3 6 7 7
3 2 2 5 4 0 2 3 4 5 8 6 7 13 12 11 11 8 8 8 8 10 11 12 14 14 11 10 9 9 10 8 8 8 6 8 7 6 5 7 6 5 4 4 5 5 5 7 7
2 1 2 4 5 3 2 4 2 8 8 6 7 11 11 11 13 6 8 11 10 10 13 13 14 14 13 11 11 10 9 10 9 8 8 10 8 8 7 8 7 5 6 6 6 6 5 5 6
3 3 5 4 5 2 3 6 9 11 3 5 9 9 10 13 10 14 16 13 15 11 12 14 14 12 13 14 11 9 9 10 10 10 11 11 10 10 8 8 8 7 7 9 7 7 7 6 6
2 2 1 4 8 3 4 8 7 7 8 10 8 7 9 11 12 14 13 13 11 9 13 13 13 13 14 13 10 8 9 9 9 9 10 13 12 12 10 7 7 7 8 8 7 7 6 6 6
3 3 5 4 4 4 4 5 5 4 2 5 7 9 9 9 10 12 13 16 14 13 13 13 14 14 13 11 8 8 10 9 9 10 10 13 13 12 10 9 7 8 8 8 9 7 9 8 4
6 3 3 5 6 5 5 9 11 11 6 10 9 10 10 10 15 15 14 12 11 12 11 14 12 14 13 9 7 5 5 7 9 11 11 15 12 15 11 8 9 10 8 8 8 10 5 7 8
4 3 2 2 4 5 8 9 11 11 9 9 11 11 11 13 11 10 14 13 10 10 10 13 13 12 11 8 9 9 11 6 7 10 14 16 14 15 14 10 11 11 11 11 11 8 11 7 8
5 4 4 3 2 3 5 11 11 9 12 15 12 11 12 7 7 10 10 10 13 16 16 13 14 12 13 11 9 7 5 3 4 6 10 13 14 15 14 13 13 13 10 11 12 13 8 4 10
4 6 4 5 2 2 5 8 8 8 6 8 9 10 9 12 11 10 9 11 12 13 14 15 16 16 15 13 4 3 4 3 2 3 6 4 11 13 14 15 13 15 12 12 15 14 16 12 10
4 1 3 4 2 4 2 8 7 7 13 5 10 10 11 9 8 7 9 7 11 12 9 12 13 13 13 11 9 12 11 10 5 6 2 4 6 6 11 13 13 15 12 14 13 14 13 10 14
6 3 3 2 2 1 3 3 10 5 7 13 11 9 9 9 8 3 4 6 8 7 9 8 8 8 9 14 13 11 12 6 3 3 6 4 4 6 5 10 14 13 12 13 15 16 14 10 10
7 6 7 5 3 5 9 8 4 5 8 5 5 1 1 6 5 4 2 5 3 4 7 8 9 8 9 12 10 14 13 6 5 4 5 4 3 5 4 5 9 12 12 14 14 15 17 15 10
5 8 2 3 2 9 3 2 7 8 6 5 3 4 6 6 5 4 5 3 3 5 4 5 7 7 6 7 8 8 9 9 9 7 6 8 6 5 10 8 9 8 11 11 13 13 14 15 13
9 10 8 9 5 6 4 9 6 10 7 4 5 1 2 6 3 5 6 4 4 5 4 4 5 5 7 8 8 7 8 6 6 7 6 7 8 8 10 9 7 7 8 9 10 10 11 13 12
7 8 7 5 2 4 6 8 8 7 9 9 11 9 6 6 5 7 5 4 4 4 5 6 6 5 6 7 6 7 6 7 7 8 7 7 8 7 8 11 11 9 8 10 11 9 12 12 12
8 7 3 2 3 4 5 6 8 6 10 5 5 6 7 4 8 3 2 2 1 3 4 4 5 7 6 7 7 6 8 7 7 6 8 8 8 8 9 10 11 11 11 11 12 10 10 12 10
3 4 3 5 7 7 3 8 8 7 6 5 4 5 5 6 3 3 2 2 2 1 3 4 5 6 6 7 7 7 7 7 7 7 7 7 7 8 9 9 9 10 11 11 11 11 10 13 12
4 9 7 6 5 5 4 13 4 9 7 7 5 3 2 1 3 3 3 3 3 2 4 5 5 6 7 6 6 7 7 7 7 7 7 7 7 6 8 7 7 7 9 8 10 9 9 12 11
Wind_Direction
338 314 83 37 53 72 300 36 133 95 49 32 58 80 123 89 91 174 149 167 131 142 144 141 135 139 130 123 111 101 100 102 99 101 99 93 86 84 86 97 95 91 87 83 83 85 87 83 73
331 342 36 80 88 75 290 147 89 93 138 90 55 32 76 104 99 110 130 175 138 138 142 144 139 138 129 119 113 114 113 111 108 104 100 98 92 83 84 99 95 92 89 88 89 89 90 81 68
322 80 74 101 108 130 168 118 139 112 94 107 77 72 77 103 68 144 148 151 132 142 143 140 138 139 130 122 122 118 113 113 108 106 102 101 98 87 85 98 95 92 93 92 93 93 90 73 64
39 8 5 81 142 331 111 149 137 105 18 39 106 77 51 339 152 162 134 132 134 144 138 144 144 145 138 135 131 128 123 115 113 108 109 108 107 98 92 93 94 98 99 99 96 96 89 74 75
37 61 29 303 357 133 103 159 132 132 158 172 93 170 95 5 124 133 135 130 139 133 141 148 146 148 143 142 136 133 128 123 119 118 115 113 112 108 102 102 101 102 102 101 98 95 84 68 75
22 92 41 339 183 157 113 132 134 131 143 171 106 117 184 168 120 159 135 130 130 135 140 147 145 146 144 146 142 139 134 128 125 125 122 120 119 116 112 107 107 107 106 104 103 98 84 65 72
115 83 220 264 240 110 148 141 131 145 147 186 159 84 152 164 178 160 152 126 132 137 138 137 147 152 147 145 144 143 138 140 137 135 127 121 120 118 114 112 112 112 111 108 106 100 78 75 79
105 97 323 282 292 149 170 101 125 99 169 158 104 146 187 210 185 155 158 138 139 147 145 149 145 150 153 156 149 145 139 138 138 128 120 114 108 107 110 114 118 118 115 113 109 94 84 86 78
68 66 278 267 297 133 177 111 335 159 113 71 83 133 190 158 151 137 164 130 154 151 147 154 153 158 158 155 157 149 144 138 135 131 128 117 118 115 110 121 123 124 122 118 112 100 82 72 75
93 111 226 335 4 152 155 125 171 121 126 116 76 20 101 134 153 159 182 179 172 161 158 158 160 162 161 163 155 153 149 150 147 145 145 139 132 127 121 118 122 125 124 126 122 102 72 70 71
175 168 201 1 37 34 88 75 167 138 204 197 195 171 159 153 170 177 193 196 180 179 160 165 169 171 171 167 163 162 158 154 153 156 158 146 135 131 121 109 104 120 122 132 103 66 77 81 84
135 230 154 124 33 26 40 301 346 173 208 141 162 180 162 170 184 193 195 195 171 182 175 172 171 169 172 159 168 170 168 163 167 176 171 142 139 141 142 135 137 136 145 122 111 104 101 85 81
134 322 95 137 111 122 7 281 243 260 251 271 124 150 181 183 195 206 198 198 186 188 185 180 177 175 172 166 172 169 178 172 176 178 168 155 154 156 151 148 152 161 148 132 123 111 100 96 93
148 21 278 175 166 178 184 264 114 262 244 224 176 183 185 189 198 200 200 207 204 192 192 183 183 177 168 179 177 173 175 176 175 179 177 162 156 157 167 170 164 177 159 144 134 124 112 98 99
80 354 318 221 184 194 175 297 224 235 287 208 197 198 197 204 195 205 209 208 205 206 191 188 184 175 173 178 176 176 177 177 182 180 174 170 165 168 170 178 171 161 148 135 127 119 116 107 98
124 91 325 301 149 223 129 267 273 276 190 232 242 231 209 214 205 213 209 211 206 188 192 187 187 179 173 173 175 178 179 179 183 181 178 176 176 172 166 174 177 158 147 142 134 133 116 120 126
319 207 205 304 169 130 169 260 265 346 112 234 228 233 238 239 239 228 210 208 204 196 189 189 185 179 176 174 171 178 181 183 179 178 179 183 181 176 174 177 167 161 151 151 147 146 148 142 126
206 209 261 216 230 155 208 255 276 289 274 234 246 245 236 227 232 226 218 212 199 196 184 187 183 184 179 173 175 183 190 188 179 181 185 181 183 178 171 171 168 168 154 148 149 149 141 145 140
175 157 185 285 210 157 222 258 262 271 285 268 251 240 239 236 241 220 219 213 195 195 178 184 176 180 170 176 185 195 202 193 184 183 183 181 183 180 180 176 169 175 172 169 155 144 144 149 130
242 226 258 302 201 161 275 267 262 251 250 247 247 253 241 248 232 246 225 209 197 197 194 182 184 179 189 190 193 198 186 199 182 175 183 180 177 181 181 178 179 177 169 157 163 153 154 141 173
189 175 214 210 349 286 315 288 277 280 250 267 253 246 247 232 235 233 238 210 208 198 190 187 185 182 187 187 137 90 88 64 125 209 191 182 168 182 187 184 182 176 174 178 175 176 175 162 196
217 223 224 256 32 237 121 287 288 273 287 259 266 252 253 259 251 242 242 221 200 211 195 191 184 177 181 167 170 188 200 203 205 198 189 179 161 179 190 185 187 180 178 177 185 179 190 177 180
209 138 126 130 161 20 282 286 270 258 275 265 261 263 258 254 249 266 258 233 222 187 185 173 156 154 162 178 182 186 202 203 148 143 162 175 193 199 211 196 184 190 184 183 183 180 192 198 179
156 78 37 36 70 282 193 194 263 225 210 260 271 323 326 136 131 121 86 50 50 147 159 166 168 179 173 182 181 190 200 165 159 159 176 174 189 214 212 204 204 190 191 187 185 193 195 187 207
94 87 340 337 356 237 301 215 246 266 245 186 268 277 217 189 172 182 153 148 135 147 174 180 178 192 176 173 175 176 179 177 184 180 179 177 184 201 212 201 197 201 192 192 184 190 196 197 197
189 161 166 196 200 258 329 243 252 230 244 232 234 285 253 244 233 205 217 190 193 160 154 137 147 179 182 185 190 184 175 183 184 182 185 195 198 204 200 198 199 202 192 189 191 190 201 206 203
208 208 176 97 15 42 232 291 300 280 307 304 302 348 17 353 276 239 230 211 183 164 172 182 184 195 197 200 188 190 185 186 193 199 191 194 191 190 187 191 196 192 190 190 189 195 198 202 204
155 162 80 355 146 255 269 269 229 304 276 343 9 31 16 346 12 28 101 152 176 189 193 181 194 203 206 202 198 197 198 201 197 193 205 192 192 177 176 191 200 199 198 194 191 197 199 199 202
129 179 169 138 154 179 253 257 222 212 148 129 68 62 28 10 333 196 84 114 135 129 200 207 201 210 216 212 208 204 205 203 205 208 204 198 181 181 181 188 194 198 202 199 199 203 197 202 202
191 201 166 151 227 234 176 257 200 140 161 141 111 119 157 110 123 159 142 138 168 207 232 229 231 223 232 230 221 222 211 204 212 216 206 189 187 181 183 178 185 187 198 198 206 200 198 200 197